ITY1313 LSZH-LIMC

Flight info

Callsign ITY1313
Flight time 1h 34m
Altitude 20000
Route VEBIT4N VEBIT T53 OBEDU/N0464F240 T53 GERSA/N0458F230 DCT SOSON DCT DEGAD DCT BASGO Z424 AKASU/N0433F190 Z424 RIXUV RIXUV3E
Aircraft A359/H-SDE2E3GHIJ1J3J4J5LM1ORWXYZ/LB1D1

Departure

Time 2026-05-05 20:42
Airport Zürich Airport (LSZH)

Arrival

Time 2026-05-05 22:17
Airport Milan Malpensa International Airport (LIMC)
Time Latitude Longitude Altitude Speed Heading
2026-05-05 20:02 47.45316 8.55941 1403 ft 0 kts
2026-05-05 20:29 47.45312 8.55940 1412 ft 3 kts
2026-05-05 20:30 47.45294 8.55937 1408 ft 3 kts 358°
2026-05-05 20:30 47.45274 8.55944 1409 ft 3 kts 316°
2026-05-05 20:30 47.45264 8.55965 1413 ft 0 kts 280°
2026-05-05 20:33 47.45264 8.55964 1413 ft 1 kts 279°
2026-05-05 20:33 47.45261 8.55934 1413 ft 7 kts 265°
2026-05-05 20:33 47.45261 8.55846 1405 ft 10 kts 281°
2026-05-05 20:33 47.45270 8.55764 1403 ft 8 kts 270°
2026-05-05 20:34 47.45270 8.55669 1403 ft 10 kts 270°
2026-05-05 20:34 47.45293 8.55571 1409 ft 11 kts 320°
2026-05-05 20:34 47.45363 8.55518 1410 ft 12 kts 334°
2026-05-05 20:34 47.45438 8.55465 1406 ft 7 kts 334°
2026-05-05 20:35 47.45490 8.55428 1413 ft 11 kts 335°
2026-05-05 20:35 47.45564 8.55377 1411 ft 13 kts 336°
2026-05-05 20:35 47.45644 8.55330 1413 ft 10 kts 341°
2026-05-05 20:35 47.45690 8.55307 1408 ft 4 kts 341°
2026-05-05 20:36 47.45695 8.55304 1407 ft 0 kts 341°
2026-05-05 20:37 47.45698 8.55302 1408 ft 5 kts 341°
2026-05-05 20:37 47.45831 8.55221 1411 ft 21 kts 344°
2026-05-05 20:37 47.45883 8.55299 1401 ft 13 kts 85°
2026-05-05 20:37 47.45879 8.55438 1406 ft 14 kts 95°
2026-05-05 20:38 47.45870 8.55579 1407 ft 13 kts 95°
2026-05-05 20:38 47.45861 8.55708 1413 ft 13 kts 97°
2026-05-05 20:38 47.45847 8.55854 1408 ft 16 kts 99°
2026-05-05 20:38 47.45836 8.56019 1410 ft 16 kts 95°
2026-05-05 20:39 47.45826 8.56182 1413 ft 16 kts 95°
2026-05-05 20:39 47.45884 8.56293 1418 ft 11 kts 14°
2026-05-05 20:39 47.45888 8.56294 1418 ft 0 kts 14°
2026-05-05 20:39 47.45920 8.56306 1415 ft 7 kts
2026-05-05 20:40 47.45944 8.56311 1414 ft 0 kts
2026-05-05 20:40 47.45945 8.56312 1414 ft 2 kts
2026-05-05 20:41 47.46096 8.56338 1413 ft 29 kts
2026-05-05 20:41 47.46274 8.56246 1412 ft 30 kts 316°
2026-05-05 20:41 47.46578 8.55838 1410 ft 91 kts 317°
2026-05-05 20:41 47.47192 8.54994 1408 ft 148 kts 317°
2026-05-05 20:42 47.48054 8.53856 1673 ft 175 kts 320°
2026-05-05 20:42 47.49005 8.52759 2471 ft 170 kts 329°
2026-05-05 20:42 47.50000 8.51772 3165 ft 174 kts 319°
2026-05-05 20:42 47.50859 8.50522 3787 ft 172 kts 304°
2026-05-05 20:43 47.51443 8.49014 4402 ft 167 kts 288°
2026-05-05 20:43 47.51733 8.47318 4878 ft 179 kts 275°
2026-05-05 20:43 47.51823 8.45356 4982 ft 200 kts 271°
2026-05-05 20:43 47.51860 8.43261 4986 ft 205 kts 270°
2026-05-05 20:44 47.51738 8.41164 4991 ft 205 kts 255°
2026-05-05 20:44 47.51084 8.39309 4994 ft 206 kts 231°
2026-05-05 20:44 47.49821 8.38003 4973 ft 241 kts 206°
2026-05-05 20:44 47.48152 8.37314 4983 ft 254 kts 197°
2026-05-05 20:45 47.44672 8.36260 4995 ft 256 kts 197°
2026-05-05 20:45 47.42929 8.35719 4988 ft 256 kts 198°
2026-05-05 20:45 47.41209 8.35185 4995 ft 256 kts 196°
2026-05-05 20:46 47.39402 8.35022 5235 ft 268 kts 181°
2026-05-05 20:46 47.37582 8.35768 6139 ft 272 kts 166°
2026-05-05 20:46 47.35836 8.36791 7180 ft 269 kts 164°
2026-05-05 20:46 47.34112 8.37906 8092 ft 271 kts 161°
2026-05-05 20:47 47.32401 8.39125 9020 ft 275 kts 156°
2026-05-05 20:47 47.30729 8.40514 9960 ft 278 kts 152°
2026-05-05 20:47 47.29074 8.42138 10546 ft 295 kts 148°
2026-05-05 20:47 47.27389 8.44065 10864 ft 319 kts 143°
2026-05-05 20:48 47.25678 8.46336 11205 ft 342 kts 139°
2026-05-05 20:48 47.23991 8.48944 11649 ft 359 kts 134°
2026-05-05 20:48 47.22401 8.51835 12326 ft 369 kts 129°
2026-05-05 20:48 47.20935 8.54980 13053 ft 377 kts 125°
2026-05-05 20:49 47.19613 8.58363 13781 ft 384 kts 120°
2026-05-05 20:49 47.18468 8.61935 14462 ft 390 kts 115°
2026-05-05 20:49 47.17532 8.65695 15204 ft 394 kts 109°
2026-05-05 20:49 47.16827 8.69545 15860 ft 398 kts 107°
2026-05-05 20:50 47.15766 8.73289 16538 ft 397 kts 122°
2026-05-05 20:50 47.14075 8.76443 17293 ft 392 kts 140°
2026-05-05 20:50 47.11824 8.78621 18035 ft 387 kts 159°
2026-05-05 20:50 47.09229 8.79555 18695 ft 384 kts 178°
2026-05-05 20:51 47.06577 8.79289 19331 ft 384 kts 193°
2026-05-05 20:51 47.04070 8.77972 20043 ft 383 kts 206°
2026-05-05 20:51 47.01701 8.76189 20862 ft 382 kts 208°
2026-05-05 20:51 46.99359 8.74325 21554 ft 385 kts 208°
2026-05-05 20:52 46.96981 8.72492 21863 ft 388 kts 207°
2026-05-05 20:52 46.94514 8.70719 21929 ft 404 kts 206°
2026-05-05 20:52 46.91904 8.69023 21907 ft 415 kts 203°
2026-05-05 20:52 46.89200 8.67491 21938 ft 417 kts 201°
2026-05-05 20:53 46.86435 8.66158 21926 ft 418 kts 198°
2026-05-05 20:53 46.83666 8.65052 21942 ft 418 kts 195°
2026-05-05 20:53 46.80817 8.64161 21958 ft 418 kts 192°
2026-05-05 20:53 46.77938 8.63528 21924 ft 419 kts 188°
2026-05-05 20:54 46.75023 8.63188 21932 ft 420 kts 185°
2026-05-05 20:54 46.72093 8.63129 21957 ft 421 kts 183°
2026-05-05 20:54 46.69182 8.62901 21959 ft 418 kts 189°
2026-05-05 20:54 46.66321 8.62170 21948 ft 417 kts 195°
2026-05-05 20:55 46.63495 8.61204 21955 ft 417 kts 194°
2026-05-05 20:55 46.60638 8.60491 21958 ft 417 kts 187°
2026-05-05 20:55 46.57734 8.60338 21970 ft 418 kts 182°
2026-05-05 20:55 46.54817 8.60449 21966 ft 420 kts 179°
2026-05-05 20:56 46.51896 8.60725 21953 ft 421 kts 177°
2026-05-05 20:56 46.48974 8.61094 21977 ft 421 kts 178°
2026-05-05 20:56 46.46056 8.61169 21969 ft 418 kts 186°
2026-05-05 20:56 46.43233 8.60495 21983 ft 415 kts 197°
2026-05-05 20:57 46.40553 8.58993 21956 ft 413 kts 206°
2026-05-05 20:57 46.38011 8.57042 22001 ft 414 kts 210°
2026-05-05 20:57 46.35551 8.54902 21972 ft 413 kts 212°
2026-05-05 20:57 46.33124 8.52670 21996 ft 413 kts 213°
2026-05-05 20:58 46.30692 8.50443 21964 ft 413 kts 210°
2026-05-05 20:58 46.28075 8.48706 21975 ft 414 kts 199°
2026-05-05 20:58 46.25241 8.47875 21961 ft 417 kts 186°
2026-05-05 20:58 46.22334 8.47837 21995 ft 419 kts 180°
2026-05-05 20:59 46.19415 8.48113 21994 ft 421 kts 177°
2026-05-05 20:59 46.16505 8.48526 21992 ft 420 kts 178°
2026-05-05 20:59 46.13622 8.48129 21996 ft 415 kts 196°
2026-05-05 20:59 46.10948 8.46593 21995 ft 413 kts 205°
2026-05-05 21:00 46.08174 8.45499 21999 ft 416 kts 188°
2026-05-05 21:00 46.05278 8.45381 21993 ft 418 kts 181°
2026-05-05 21:00 46.02374 8.45760 21997 ft 422 kts 173°
2026-05-05 21:00 45.99541 8.46918 21993 ft 427 kts 161°
2026-05-05 21:01 45.96946 8.49041 21999 ft 433 kts 146°
2026-05-05 21:01 45.94783 8.52108 21996 ft 443 kts 132°
2026-05-05 21:01 45.93219 8.55965 21992 ft 453 kts 117°
2026-05-05 21:01 45.92335 8.60342 21997 ft 461 kts 104°
2026-05-05 21:02 45.91992 8.64877 21994 ft 466 kts 95°
2026-05-05 21:02 45.92147 8.69543 21991 ft 471 kts 86°
2026-05-05 21:02 45.92803 8.74175 21985 ft 476 kts 77°
2026-05-05 21:02 45.93944 8.78660 21995 ft 482 kts 68°
2026-05-05 21:03 45.95549 8.82909 21994 ft 485 kts 59°
2026-05-05 21:03 45.97584 8.86795 21995 ft 487 kts 50°
2026-05-05 21:03 45.99995 8.90207 21992 ft 488 kts 40°
2026-05-05 21:03 46.02739 8.93083 22002 ft 488 kts 31°
2026-05-05 21:04 46.05649 8.95594 21993 ft 487 kts 33°
2026-05-05 21:04 46.08382 8.98473 21992 ft 487 kts 41°
2026-05-05 21:04 46.10734 9.01967 21991 ft 485 kts 54°
2026-05-05 21:04 46.12431 9.06124 21996 ft 481 kts 69°
2026-05-05 21:05 46.13301 9.10723 21991 ft 474 kts 85°
2026-05-05 21:05 46.13302 9.15421 21990 ft 466 kts 102°
2026-05-05 21:05 46.12453 9.19878 21981 ft 459 kts 117°
2026-05-05 21:05 46.10833 9.23769 21993 ft 450 kts 133°
2026-05-05 21:06 46.08642 9.26917 21993 ft 441 kts 144°
2026-05-05 21:06 46.06231 9.29635 21995 ft 439 kts 147°
2026-05-05 21:06 46.03785 9.32253 22004 ft 439 kts 147°
2026-05-05 21:06 46.01394 9.34911 21992 ft 440 kts 146°
2026-05-05 21:07 45.99029 9.37705 21998 ft 441 kts 144°
2026-05-05 21:07 45.96714 9.40594 21985 ft 442 kts 142°
2026-05-05 21:07 45.94424 9.43562 22000 ft 443 kts 142°
2026-05-05 21:07 45.92152 9.46554 21998 ft 444 kts 141°
2026-05-05 21:08 45.89890 9.49557 21998 ft 444 kts 141°
2026-05-05 21:08 45.87618 9.52564 21994 ft 444 kts 143°
2026-05-05 21:08 45.85385 9.55614 21989 ft 442 kts 136°
2026-05-05 21:08 45.83693 9.59210 22013 ft 428 kts 125°
2026-05-05 21:09 45.82184 9.62776 22010 ft 406 kts 131°
2026-05-05 21:09 45.80622 9.66024 22094 ft 387 kts 126°
2026-05-05 21:09 45.79214 9.69250 21982 ft 372 kts 129°
2026-05-05 21:09 45.77663 9.71998 22214 ft 337 kts 140°
2026-05-05 21:10 45.75797 9.73686 22275 ft 303 kts 165°
2026-05-05 21:10 45.73807 9.74026 22101 ft 288 kts 193°
2026-05-05 21:10 45.71935 9.72873 21994 ft 305 kts 219°
2026-05-05 21:10 45.70600 9.70454 21987 ft 329 kts 243°
2026-05-05 21:11 45.69996 9.67167 21986 ft 356 kts 257°
2026-05-05 21:11 45.69658 9.64787 21978 ft 368 kts 251°
2026-05-05 21:11 45.68152 9.60325 21992 ft 389 kts 231°
2026-05-05 21:11 45.66462 9.57223 21980 ft 402 kts 236°
2026-05-05 21:12 45.65556 9.54829 21991 ft 406 kts 244°
2026-05-05 21:12 45.64731 9.51002 22099 ft 411 kts 257°
2026-05-05 21:12 45.64678 9.46895 22111 ft 423 kts 274°
2026-05-05 21:12 45.65825 9.42968 22122 ft 439 kts 298°
2026-05-05 21:13 45.68177 9.40111 22034 ft 461 kts 333°
2026-05-05 21:13 45.71343 9.39486 22066 ft 459 kts
2026-05-05 21:13 45.74389 9.40819 21503 ft 459 kts 25°
2026-05-05 21:13 45.77004 9.43385 21014 ft 453 kts 41°
2026-05-05 21:14 45.79323 9.46346 20962 ft 438 kts 44°
2026-05-05 21:14 45.81426 9.49467 21116 ft 435 kts 42°
2026-05-05 21:14 45.83860 9.52080 21245 ft 440 kts 26°
2026-05-05 21:14 45.86707 9.53690 21468 ft 443 kts
2026-05-05 21:15 45.89711 9.54690 21661 ft 446 kts 19°
2026-05-05 21:15 45.92472 9.56794 21907 ft 453 kts 27°
2026-05-05 21:15 45.95379 9.58657 21966 ft 466 kts 21°
2026-05-05 21:15 45.98153 9.61215 22006 ft 484 kts 40°
2026-05-05 21:16 46.00403 9.64773 22006 ft 489 kts 56°
2026-05-05 21:16 46.01970 9.69082 22005 ft 486 kts 72°
2026-05-05 21:16 46.02713 9.73785 22002 ft 480 kts 88°
2026-05-05 21:16 46.02591 9.78523 22005 ft 471 kts 103°
2026-05-05 21:17 46.01629 9.82964 21999 ft 462 kts 119°
2026-05-05 21:17 45.99912 9.86809 22004 ft 450 kts 135°
2026-05-05 21:17 45.97599 9.89744 22004 ft 439 kts 151°
2026-05-05 21:17 45.94873 9.91570 22005 ft 428 kts 168°
2026-05-05 21:18 45.91968 9.92115 21990 ft 417 kts 185°
2026-05-05 21:18 45.89140 9.91419 22007 ft 412 kts 198°
2026-05-05 21:18 45.86583 9.89639 22008 ft 408 kts 216°
2026-05-05 21:18 45.84529 9.86855 22009 ft 408 kts 230°
2026-05-05 21:19 45.82966 9.83442 22002 ft 411 kts 239°
2026-05-05 21:19 45.81759 9.79719 21998 ft 413 kts 246°
2026-05-05 21:19 45.80955 9.75752 22004 ft 417 kts 256°
2026-05-05 21:19 45.80714 9.71593 21998 ft 423 kts 268°
2026-05-05 21:20 45.81223 9.67414 22002 ft 432 kts 284°
2026-05-05 21:20 45.82460 9.63454 22003 ft 436 kts 290°
2026-05-05 21:20 45.83460 9.59395 22001 ft 429 kts 278°
2026-05-05 21:20 45.83859 9.55198 22013 ft 421 kts 264°
2026-05-05 21:21 45.83404 9.51198 21958 ft 396 kts 247°
2026-05-05 21:21 45.82592 9.47488 21907 ft 394 kts 256°
2026-05-05 21:21 45.82489 9.43453 21915 ft 418 kts 271°
2026-05-05 21:21 45.83174 9.39401 21906 ft 430 kts 286°
2026-05-05 21:22 45.84624 9.35606 21905 ft 441 kts 301°
2026-05-05 21:22 45.86758 9.32387 21898 ft 451 kts 316°
2026-05-05 21:22 45.89457 9.30027 21898 ft 461 kts 332°
2026-05-05 21:22 45.92550 9.28766 21899 ft 460 kts 348°
2026-05-05 21:23 45.95721 9.28773 21922 ft 461 kts
2026-05-05 21:23 45.98865 9.30054 21922 ft 479 kts 22°
2026-05-05 21:23 46.01717 9.32549 21926 ft 482 kts 39°
2026-05-05 21:23 46.04022 9.36015 21780 ft 479 kts 55°
2026-05-05 21:24 46.05593 9.40201 21523 ft 474 kts 72°
2026-05-05 21:24 46.06303 9.44776 21262 ft 465 kts 89°
2026-05-05 21:24 46.06113 9.49355 21051 ft 455 kts 106°
2026-05-05 21:24 46.05051 9.53561 20998 ft 444 kts 123°
2026-05-05 21:25 46.03225 9.57069 21016 ft 433 kts 140°
2026-05-05 21:25 46.00831 9.59587 20997 ft 423 kts 157°
2026-05-05 21:25 45.98115 9.60923 21013 ft 414 kts 174°
2026-05-05 21:25 45.95273 9.61273 20979 ft 411 kts 179°
2026-05-05 21:26 45.92432 9.62013 21008 ft 417 kts 169°
2026-05-05 21:26 45.89663 9.63292 21004 ft 419 kts 164°
2026-05-05 21:26 45.86947 9.64833 20982 ft 421 kts 162°
2026-05-05 21:26 45.84250 9.66471 21000 ft 420 kts 163°
2026-05-05 21:27 45.81444 9.67415 20989 ft 411 kts 180°
2026-05-05 21:27 45.78618 9.67155 21002 ft 405 kts 192°
2026-05-05 21:27 45.75862 9.66383 20988 ft 404 kts 195°
2026-05-05 21:27 45.73236 9.65019 20995 ft 400 kts 210°
2026-05-05 21:28 45.71066 9.62572 21001 ft 399 kts 227°
2026-05-05 21:28 45.69344 9.59469 20995 ft 399 kts 233°
2026-05-05 21:28 45.67732 9.56230 20991 ft 400 kts 234°
2026-05-05 21:28 45.66349 9.52769 21092 ft 402 kts 243°
2026-05-05 21:29 45.65435 9.48986 21097 ft 406 kts 254°
2026-05-05 21:29 45.65155 9.44959 21094 ft 411 kts 267°
2026-05-05 21:29 45.65581 9.40875 21076 ft 421 kts 279°
2026-05-05 21:29 45.66726 9.36964 20996 ft 433 kts 294°
2026-05-05 21:30 45.68024 9.33120 20311 ft 429 kts 278°
2026-05-05 21:30 45.68349 9.28916 18942 ft 435 kts 268°
2026-05-05 21:30 45.68098 9.24648 19045 ft 417 kts 249°
2026-05-05 21:30 45.66793 9.21179 19085 ft 390 kts 231°
2026-05-05 21:31 45.64742 9.18653 18821 ft 394 kts 205°
2026-05-05 21:31 45.62041 9.18014 19549 ft 405 kts 177°
2026-05-05 21:31 45.59246 9.19004 19930 ft 427 kts 161°
2026-05-05 21:31 45.56630 9.21242 19964 ft 445 kts 144°
2026-05-05 21:32 45.54606 9.24513 19974 ft 440 kts 126°
2026-05-05 21:32 45.53380 9.28519 19972 ft 445 kts 108°
2026-05-05 21:32 45.53047 9.32943 19964 ft 455 kts 90°
2026-05-05 21:32 45.53534 9.37431 19969 ft 460 kts 79°
2026-05-05 21:33 45.54297 9.41811 20096 ft 463 kts 76°
2026-05-05 21:33 45.55501 9.46100 20100 ft 468 kts 63°
2026-05-05 21:33 45.57402 9.49881 20102 ft 471 kts 46°
2026-05-05 21:33 45.59956 9.52760 20105 ft 468 kts 29°
2026-05-05 21:34 45.62942 9.54536 20104 ft 464 kts 11°
2026-05-05 21:34 45.66124 9.55016 19993 ft 460 kts 354°
2026-05-05 21:34 45.69232 9.54181 19992 ft 449 kts 336°
2026-05-05 21:34 45.72023 9.52296 19993 ft 443 kts 328°
2026-05-05 21:35 45.74845 9.50475 19989 ft 444 kts 330°
2026-05-05 21:35 45.77374 9.48045 19997 ft 433 kts 312°
2026-05-05 21:35 45.79241 9.44735 20009 ft 423 kts 297°
2026-05-05 21:35 45.80847 9.41245 19990 ft 428 kts 302°
2026-05-05 21:36 45.82756 9.37943 19996 ft 432 kts 308°
2026-05-05 21:36 45.85007 9.35044 19996 ft 439 kts 319°
2026-05-05 21:36 45.87693 9.32911 19982 ft 447 kts 335°
2026-05-05 21:36 45.90753 9.31900 20001 ft 456 kts 352°
2026-05-05 21:37 45.93934 9.32200 19996 ft 462 kts 10°
2026-05-05 21:37 45.96944 9.33809 19987 ft 465 kts 28°
2026-05-05 21:37 45.99533 9.36606 19991 ft 467 kts 45°
2026-05-05 21:37 46.01484 9.40316 20001 ft 465 kts 62°
2026-05-05 21:38 46.02637 9.44553 20000 ft 459 kts 79°
2026-05-05 21:38 46.02934 9.49133 19997 ft 452 kts 96°
2026-05-05 21:38 46.02337 9.53519 19997 ft 443 kts 113°
2026-05-05 21:38 46.00947 9.57357 19996 ft 435 kts 129°
2026-05-05 21:39 45.98876 9.60449 19996 ft 425 kts 146°
2026-05-05 21:39 45.96321 9.62475 20003 ft 417 kts 163°
2026-05-05 21:39 45.93515 9.63249 20001 ft 407 kts 180°
2026-05-05 21:39 45.90722 9.62845 20003 ft 402 kts 193°
2026-05-05 21:40 45.87989 9.62015 19990 ft 401 kts 195°
2026-05-05 21:40 45.85285 9.61019 20008 ft 401 kts 196°
2026-05-05 21:40 45.82552 9.60198 19995 ft 402 kts 192°
2026-05-05 21:40 45.79797 9.59531 19990 ft 402 kts 193°
2026-05-05 21:41 45.77089 9.58557 19991 ft 400 kts 200°
2026-05-05 21:41 45.74533 9.57009 19985 ft 399 kts 208°
2026-05-05 21:41 45.72261 9.54755 19991 ft 398 kts 219°
2026-05-05 21:41 45.70440 9.51781 19998 ft 398 kts 235°
2026-05-05 21:42 45.69241 9.48215 20081 ft 401 kts 249°
2026-05-05 21:42 45.68747 9.44339 20080 ft 406 kts 263°
2026-05-05 21:42 45.68980 9.40302 20081 ft 414 kts 279°
2026-05-05 21:42 45.70023 9.36423 19979 ft 423 kts 294°
2026-05-05 21:43 45.71781 9.32989 19991 ft 433 kts 309°
2026-05-05 21:43 45.74112 9.30215 19992 ft 439 kts 319°
2026-05-05 21:43 45.76623 9.27710 19988 ft 440 kts 320°
2026-05-05 21:43 45.79153 9.25221 19988 ft 440 kts 320°
2026-05-05 21:44 45.81672 9.22718 19992 ft 440 kts 320°
2026-05-05 21:44 45.84287 9.20403 19980 ft 446 kts 327°
2026-05-05 21:44 45.87237 9.18901 19998 ft 455 kts 343°
2026-05-05 21:44 45.90412 9.18530 19884 ft 461 kts 359°
2026-05-05 21:45 45.93571 9.19382 19747 ft 464 kts 17°
2026-05-05 21:45 45.96453 9.21457 19647 ft 466 kts 34°
2026-05-05 21:45 45.98861 9.24557 19511 ft 466 kts 49°
2026-05-05 21:45 46.00622 9.28367 19324 ft 462 kts 65°
2026-05-05 21:46 46.01640 9.32701 18787 ft 454 kts 82°
2026-05-05 21:46 46.01779 9.37179 18127 ft 444 kts 98°
2026-05-05 21:46 46.01037 9.41416 17385 ft 433 kts 116°
2026-05-05 21:46 45.99485 9.45049 16655 ft 423 kts 134°
2026-05-05 21:47 45.97285 9.47707 16157 ft 406 kts 153°
2026-05-05 21:47 45.94706 9.49112 16027 ft 391 kts 169°
2026-05-05 21:47 45.92108 9.50371 15996 ft 397 kts 159°
2026-05-05 21:47 45.89625 9.52129 15992 ft 400 kts 154°
2026-05-05 21:48 45.87208 9.54140 15998 ft 402 kts 151°
2026-05-05 21:48 45.84779 9.55986 15995 ft 399 kts 163°
2026-05-05 21:48 45.82111 9.57036 15996 ft 398 kts 164°
2026-05-05 21:48 45.79694 9.59010 15998 ft 404 kts 142°
2026-05-05 21:49 45.77900 9.62130 16000 ft 412 kts 121°
2026-05-05 21:49 45.76842 9.65968 16000 ft 418 kts 109°
2026-05-05 21:49 45.76204 9.70049 15998 ft 423 kts 98°
2026-05-05 21:49 45.76264 9.74266 15996 ft 427 kts 81°
2026-05-05 21:50 45.77256 9.78275 15995 ft 429 kts 60°
2026-05-05 21:50 45.79133 9.81590 15996 ft 430 kts 40°
2026-05-05 21:50 45.81632 9.83788 16000 ft 428 kts 19°
2026-05-05 21:50 45.84556 9.84693 15997 ft 424 kts 359°
2026-05-05 21:51 45.87410 9.84191 16003 ft 417 kts 340°
2026-05-05 21:51 45.89980 9.82386 16001 ft 409 kts 320°
2026-05-05 21:51 45.91942 9.79505 16001 ft 401 kts 300°
2026-05-05 21:51 45.93073 9.75905 15999 ft 393 kts 280°
2026-05-05 21:52 45.92454 9.68394 16005 ft 383 kts 240°
2026-05-05 21:52 45.90816 9.65413 15999 ft 382 kts 222°
2026-05-05 21:52 45.88911 9.62739 15998 ft 383 kts 229°
2026-05-05 21:53 45.87355 9.59626 16002 ft 385 kts 239°
2026-05-05 21:53 45.86159 9.56186 15987 ft 385 kts 245°
2026-05-05 21:53 45.85113 9.52650 15832 ft 384 kts 241°
2026-05-05 21:53 45.83770 9.49401 15820 ft 383 kts 233°
2026-05-05 21:54 45.82398 9.46167 15739 ft 373 kts 239°
2026-05-05 21:54 45.81194 9.42970 15634 ft 356 kts 240°
2026-05-05 21:54 45.80065 9.39892 15519 ft 341 kts 240°
2026-05-05 21:54 45.78991 9.36939 15372 ft 327 kts 241°
2026-05-05 21:55 45.77962 9.34095 15199 ft 316 kts 241°
2026-05-05 21:55 45.76968 9.31345 15004 ft 305 kts 241°
2026-05-05 21:55 45.76010 9.28685 14744 ft 298 kts 242°
2026-05-05 21:55 45.75096 9.26032 14334 ft 296 kts 243°
2026-05-05 21:56 45.74195 9.23390 13903 ft 295 kts 243°
2026-05-05 21:56 45.73288 9.20750 13451 ft 295 kts 243°
2026-05-05 21:56 45.72385 9.18133 13076 ft 291 kts 242°
2026-05-05 21:56 45.71499 9.15571 12842 ft 285 kts 242°
2026-05-05 21:57 45.70614 9.13021 12311 ft 287 kts 242°
2026-05-05 21:57 45.69720 9.10451 11787 ft 289 kts 242°
2026-05-05 21:57 45.68821 9.07886 11350 ft 288 kts 240°
2026-05-05 21:57 45.67911 9.05331 10909 ft 288 kts 241°
2026-05-05 21:58 45.66999 9.02835 10408 ft 282 kts 239°
2026-05-05 21:58 45.66113 9.00347 9917 ft 280 kts 241°
2026-05-05 21:58 45.65251 8.97865 9359 ft 278 kts 241°
2026-05-05 21:58 45.64387 8.95397 8819 ft 277 kts 242°
2026-05-05 21:59 45.63532 8.92976 8274 ft 267 kts 240°
2026-05-05 21:59 45.62635 8.90700 7701 ft 260 kts 231°
2026-05-05 21:59 45.61813 8.89474 7162 ft 259 kts 213°
2026-05-05 21:59 45.60167 8.88561 6470 ft 254 kts 184°
2026-05-05 22:00 45.58447 8.88692 6098 ft 244 kts 171°
2026-05-05 22:00 45.56771 8.89114 6020 ft 245 kts 169°
2026-05-05 22:00 45.55096 8.89560 6017 ft 245 kts 169°
2026-05-05 22:00 45.53422 8.90009 6023 ft 244 kts 166°
2026-05-05 22:01 45.51753 8.90494 6021 ft 244 kts 169°
2026-05-05 22:01 45.50086 8.90951 6019 ft 244 kts 170°
2026-05-05 22:01 45.48412 8.91388 6020 ft 245 kts 170°
2026-05-05 22:01 45.46738 8.91849 6018 ft 242 kts 165°
2026-05-05 22:02 45.45149 8.92318 6002 ft 225 kts 169°
2026-05-05 22:02 45.43626 8.92722 5736 ft 222 kts 168°
2026-05-05 22:02 45.42087 8.93145 5265 ft 227 kts 167°
2026-05-05 22:02 45.40559 8.93585 4954 ft 221 kts 168°
2026-05-05 22:03 45.39054 8.93994 4509 ft 220 kts 168°
2026-05-05 22:03 45.37572 8.94392 4123 ft 216 kts 169°
2026-05-05 22:03 45.36136 8.94761 4027 ft 205 kts 170°
2026-05-05 22:03 45.34728 8.95118 4019 ft 205 kts 169°
2026-05-05 22:04 45.33327 8.95482 4012 ft 205 kts 169°
2026-05-05 22:04 45.31927 8.95852 4013 ft 205 kts 169°
2026-05-05 22:04 45.30527 8.96225 4015 ft 205 kts 169°
2026-05-05 22:04 45.29128 8.96607 4011 ft 204 kts 169°
2026-05-05 22:05 45.27732 8.96985 3999 ft 205 kts 169°
2026-05-05 22:05 45.26328 8.97363 4000 ft 205 kts 169°
2026-05-05 22:05 45.24927 8.97736 3999 ft 204 kts 165°
2026-05-05 22:05 45.23541 8.98174 3998 ft 204 kts 163°
2026-05-05 22:06 45.22143 8.98577 3993 ft 206 kts 173°
2026-05-05 22:06 45.20732 8.98429 3993 ft 203 kts 196°
2026-05-05 22:06 45.19574 8.97406 3999 ft 196 kts 226°
2026-05-05 22:06 45.18990 8.95694 4005 ft 197 kts 257°
2026-05-05 22:07 45.19201 8.93781 3999 ft 204 kts 295°
2026-05-05 22:07 45.20168 8.92278 3996 ft 209 kts 316°
2026-05-05 22:07 45.21298 8.90983 3996 ft 208 kts 318°
2026-05-05 22:07 45.22426 8.89698 3994 ft 209 kts 317°
2026-05-05 22:08 45.23600 8.88332 3990 ft 225 kts 319°
2026-05-05 22:08 45.24818 8.86894 3992 ft 228 kts 318°
2026-05-05 22:08 45.26024 8.85463 4015 ft 223 kts 317°
2026-05-05 22:08 45.27192 8.84064 4021 ft 218 kts 319°
2026-05-05 22:09 45.28376 8.82732 4018 ft 218 kts 325°
2026-05-05 22:09 45.29776 8.81910 4022 ft 218 kts 345°
2026-05-05 22:09 45.31261 8.81468 4018 ft 218 kts 349°
2026-05-05 22:09 45.32751 8.81268 4022 ft 219 kts 359°
2026-05-05 22:10 45.34221 8.81164 4027 ft 202 kts 355°
2026-05-05 22:10 45.35541 8.80912 4031 ft 181 kts 349°
2026-05-05 22:10 45.36751 8.80592 4029 ft 174 kts 349°
2026-05-05 22:10 45.37939 8.80267 4024 ft 174 kts 348°
2026-05-05 22:11 45.39130 8.79936 4022 ft 175 kts 348°
2026-05-05 22:11 45.40321 8.79603 4021 ft 175 kts 348°
2026-05-05 22:11 45.41511 8.79257 4013 ft 174 kts 342°
2026-05-05 22:11 45.42685 8.78901 3916 ft 169 kts 345°
2026-05-05 22:12 45.43806 8.78583 3769 ft 158 kts 345°
2026-05-05 22:12 45.44871 8.78287 3646 ft 155 kts 346°
2026-05-05 22:12 45.45977 8.77991 3216 ft 171 kts 350°
2026-05-05 22:12 45.47145 8.77697 2983 ft 164 kts 349°
2026-05-05 22:13 45.48218 8.77419 2909 ft 153 kts 349°
2026-05-05 22:13 45.49264 8.77142 2793 ft 154 kts 350°
2026-05-05 22:13 45.50316 8.76858 2667 ft 154 kts 350°
2026-05-05 22:13 45.51390 8.76574 2355 ft 155 kts 350°
2026-05-05 22:14 45.52420 8.76241 2097 ft 149 kts 346°
2026-05-05 22:14 45.53352 8.75787 1940 ft 137 kts 337°
2026-05-05 22:14 45.54233 8.75344 1919 ft 135 kts 344°
2026-05-05 22:14 45.55185 8.75081 1803 ft 142 kts 352°
2026-05-05 22:15 45.56163 8.74971 1919 ft 139 kts
2026-05-05 22:15 45.57038 8.74961 1842 ft 119 kts 358°
2026-05-05 22:15 45.57866 8.74781 1451 ft 121 kts 349°
2026-05-05 22:15 45.58636 8.74549 1362 ft 109 kts 348°
2026-05-05 22:16 45.59431 8.74342 1277 ft 130 kts 350°
2026-05-05 22:16 45.60295 8.74108 1054 ft 121 kts 349°
2026-05-05 22:16 45.61109 8.73880 848 ft 116 kts 346°
2026-05-05 22:16 45.61852 8.73676 720 ft 103 kts 347°
2026-05-05 22:17 45.62353 8.73547 731 ft 39 kts 346°
2026-05-05 22:17 45.62539 8.73366 735 ft 30 kts 306°
2026-05-05 22:17 45.62631 8.73174 735 ft 20 kts 308°
2026-05-05 22:17 45.62665 8.73103 736 ft 0 kts 306°
2026-05-05 22:18 45.62684 8.73065 736 ft 0 kts 304°
2026-05-05 22:18 45.62685 8.73062 736 ft 4 kts 303°
2026-05-05 22:18 45.62696 8.72944 734 ft 9 kts 207°
2026-05-05 22:18 45.62624 8.72945 736 ft 12 kts 173°
2026-05-05 22:19 45.62532 8.72934 735 ft 13 kts 191°
2026-05-05 22:19 45.62455 8.72871 735 ft 14 kts 211°
2026-05-05 22:19 45.62320 8.72738 735 ft 29 kts 221°
2026-05-05 22:19 45.62245 8.72489 733 ft 21 kts 259°
2026-05-05 22:20 45.62228 8.72306 735 ft 14 kts 277°
2026-05-05 22:20 45.62284 8.72247 734 ft 15 kts 342°
2026-05-05 22:20 45.62374 8.72172 734 ft 14 kts 289°
2026-05-05 22:20 45.62358 8.72052 735 ft 13 kts 253°
2026-05-05 22:21 45.62336 8.71900 734 ft 17 kts 259°
2026-05-05 22:21 45.62321 8.71786 734 ft 6 kts 259°
2026-05-05 22:21 45.62312 8.71707 735 ft 8 kts 269°
2026-05-05 22:21 45.62322 8.71680 736 ft 3 kts 326°
2026-05-05 22:22 45.62347 8.71667 736 ft 6 kts 346°
2026-05-05 22:22 45.62381 8.71658 734 ft 0 kts 348°